User: anonymous   Login
Location: Unspecified
(0.0000°N, 0.0000°E)
Time: 05:46:21
(UTC+00:00)
Language:

STARLINK-30854 - Orbit

View from above orbital plane
View from above orbital plane
View from above satellite
View from above satellite

Ground track
Ground track

The orbit is defined by the following mean orbital elements,

1 58244U          26145.45568073 +.00000000 +00000-0 +90262-4 0 00005
2 58244  43.0019 211.8002 0001800 263.1750  96.8897 15.27577006    06
Epoch (UTC): 25 May 2026 10:56:10
Eccentricity: 0.0001800
inclination: 43.0019°
perigee height: 482 km
apogee height: 484 km
right ascension of ascending node: 211.8002°
argument of perigee: 263.1750°
revolutions per day: 15.27577006
mean anomaly at epoch: 96.8897°

The dashed part of the orbit path shows where the satellite is in the earth's shadow,  

DLR